Location: Berkeley
(37.8716°N, 122.2727°W)
Time: 00:58:41
(UTC-07:00)

Envisat - Pass Details

Date: 20 February 2019
Orbit: 764 x 766 km, 98.1° (Epoch: 23 October)

Event Time Altitude Azimuth Distance (km) Brightness Sun altitude
Rises 06:17:54 0° 36° (NE) 3,235 6.7 -7.6°
Reaches altitude 10° 06:21:39 10° 64° (ENE) 2,303 6.5 -6.9°
Maximum altitude 06:23:50 13° 90° (E) 2,113 6.9 -6.5°
Drops below altitude 10° 06:26:02 10° 116° (ESE) 2,297 7.0 -6.0°
Sets 06:29:44 0° 145° (SE) 3,216 7.0 -5.3°
